TimeCST,TemperatureF,Dew PointF,Humidity,Sea Level PressureIn,VisibilityMPH,Wind Direction,Wind SpeedMPH,Gust SpeedMPH,PrecipitationIn,Events,Conditions,WindDirDegrees,DateUTC
12:15 AM,56.8,52.2,84,30.27,10.0,SSW,6.9,-,N/A,,Clear,210,2013-01-24 06:15:00
12:35 AM,56.8,52.3,85,30.27,10.0,SSW,5.8,-,N/A,,Clear,210,2013-01-24 06:35:00
12:55 AM,56.7,52.7,87,30.27,10.0,SW,5.8,-,N/A,,Clear,220,2013-01-24 06:55:00
1:15 AM,56.5,53.1,88,30.27,10.0,SSW,6.9,-,N/A,,Scattered Clouds,200,2013-01-24 07:15:00
1:35 AM,55.4,53.2,92,30.27,10.0,SSW,5.8,-,N/A,,Clear,200,2013-01-24 07:35:00
1:55 AM,55.4,53.8,94,30.27,10.0,SW,4.6,-,N/A,,Scattered Clouds,220,2013-01-24 07:55:00
2:15 AM,55.0,54.1,97,30.28,10.0,SW,3.5,-,N/A,,Mostly Cloudy,220,2013-01-24 08:15:00
2:35 AM,55.0,54.9,99,30.27,10.0,SSW,5.8,-,N/A,,Scattered Clouds,210,2013-01-24 08:35:00
2:55 AM,55.6,55.4,99,30.27,10.0,SSW,5.8,-,N/A,,Mostly Cloudy,200,2013-01-24 08:55:00
3:15 AM,55.9,55.4,98,30.27,10.0,SSW,5.8,-,N/A,,Overcast,210,2013-01-24 09:15:00
3:35 AM,56.5,55.4,96,30.27,10.0,SSW,4.6,-,N/A,,Overcast,210,2013-01-24 09:35:00
3:55 AM,56.5,55.2,96,30.28,10.0,SW,3.5,-,N/A,,Overcast,220,2013-01-24 09:55:00
4:15 AM,56.5,55.2,96,30.29,10.0,SSW,4.6,-,N/A,,Overcast,200,2013-01-24 10:15:00
4:55 AM,55.9,55.9,100,30.28,10.0,SSW,4.6,-,N/A,,Mostly Cloudy,200,2013-01-24 10:55:00
5:15 AM,55.9,55.9,100,30.29,10.0,South,3.5,-,N/A,,Overcast,190,2013-01-24 11:15:00
5:35 AM,55.6,55.6,100,30.29,10.0,South,3.5,-,N/A,,Overcast,180,2013-01-24 11:35:00
6:15 AM,54.7,54.7,100,30.29,7.0,SSW,4.6,-,N/A,,Scattered Clouds,200,2013-01-24 12:15:00
6:35 AM,54.9,54.9,100,30.29,7.0,SSW,8.1,-,N/A,,Mostly Cloudy,200,2013-01-24 12:35:00
6:55 AM,54.9,54.9,100,30.29,5.0,SSW,5.8,-,N/A,,Mostly Cloudy,200,2013-01-24 12:55:00
7:15 AM,55.0,55.0,100,30.29,2.5,SSW,6.9,-,N/A,,Overcast,210,2013-01-24 13:15:00
7:55 AM,56.3,56.3,100,30.30,0.5,SSW,6.9,-,N/A,Fog,Fog,210,2013-01-24 13:55:00
8:15 AM,56.7,56.7,100,30.30,0.5,SSW,5.8,-,N/A,Fog,Fog,210,2013-01-24 14:15:00
8:35 AM,57.2,57.2,100,30.31,1.0,SW,6.9,-,N/A,,Overcast,230,2013-01-24 14:35:00
8:55 AM,57.4,57.4,100,30.32,1.2,SSW,5.8,-,N/A,,Overcast,210,2013-01-24 14:55:00
9:15 AM,57.6,57.6,100,30.32,1.8,SW,4.6,-,N/A,,Overcast,230,2013-01-24 15:15:00
9:35 AM,58.1,58.1,100,30.33,2.5,SW,6.9,-,N/A,,Overcast,220,2013-01-24 15:35:00
9:55 AM,58.3,58.3,100,30.33,3.0,SW,4.6,-,N/A,,Overcast,220,2013-01-24 15:55:00
10:15 AM,59.2,59.2,100,30.33,4.0,SW,4.6,-,N/A,,Overcast,220,2013-01-24 16:15:00
10:35 AM,59.2,59.2,100,30.33,5.0,Calm,Calm,-,N/A,,Overcast,0,2013-01-24 16:35:00
10:55 AM,59.5,59.5,100,30.33,2.0,Calm,Calm,-,N/A,,Overcast,0,2013-01-24 16:55:00
11:15 AM,59.9,59.9,100,30.32,1.2,Calm,Calm,-,N/A,,Overcast,0,2013-01-24 17:15:00
11:35 AM,59.9,59.9,100,30.31,1.2,East,4.6,-,N/A,,Overcast,80,2013-01-24 17:35:00
11:55 AM,59.5,59.5,100,30.31,1.0,East,4.6,-,N/A,,Overcast,80,2013-01-24 17:55:00
12:15 PM,59.2,59.2,100,30.29,1.0,ESE,6.9,-,N/A,,Overcast,110,2013-01-24 18:15:00
12:35 PM,59.0,59.0,100,30.28,1.0,East,4.6,-,N/A,,Overcast,90,2013-01-24 18:35:00
12:55 PM,58.6,58.6,100,30.28,1.0,East,4.6,-,N/A,,Overcast,80,2013-01-24 18:55:00
1:15 PM,58.3,58.3,100,30.28,1.2,ENE,5.8,-,N/A,,Drizzle,60,2013-01-24 19:15:00
1:35 PM,57.4,57.4,100,30.27,1.5,East,6.9,-,N/A,,Drizzle,80,2013-01-24 19:35:00
1:55 PM,57.4,57.4,100,30.26,1.2,East,4.6,-,0.01,,Drizzle,90,2013-01-24 19:55:00
2:15 PM,57.2,57.2,100,30.25,1.2,East,4.6,-,N/A,,Drizzle,100,2013-01-24 20:15:00
2:35 PM,57.4,57.4,100,30.24,1.2,East,4.6,-,N/A,,Drizzle,100,2013-01-24 20:35:00
2:55 PM,57.4,57.4,100,30.24,1.2,East,5.8,-,N/A,,Drizzle,100,2013-01-24 20:55:00
3:15 PM,57.6,57.6,100,30.24,1.5,East,5.8,-,0.01,,Drizzle,90,2013-01-24 21:15:00
3:35 PM,55.4,55.4,100,30.25,2.5,ENE,8.1,-,0.02,,Drizzle,70,2013-01-24 21:35:00
3:55 PM,54.1,54.1,100,30.25,2.5,NE,6.9,-,0.02,Rain,Rain,50,2013-01-24 21:55:00
4:15 PM,53.1,53.1,100,30.25,2.0,ENE,9.2,-,0.01,,Drizzle,70,2013-01-24 22:15:00
4:35 PM,52.3,52.3,100,30.25,1.8,NE,6.9,-,0.01,,Drizzle,50,2013-01-24 22:35:00
4:55 PM,51.6,51.6,100,30.25,2.0,ENE,9.2,-,0.01,,Drizzle,70,2013-01-24 22:55:00
5:15 PM,51.1,51.1,100,30.25,1.5,East,6.9,-,0.01,,Light Drizzle,80,2013-01-24 23:15:00
5:35 PM,50.4,50.4,100,30.25,2.0,East,5.8,-,0.01,,Light Drizzle,90,2013-01-24 23:35:00
5:55 PM,50.0,50.0,100,30.25,3.0,East,6.9,-,0.01,,Overcast,80,2013-01-24 23:55:00
6:15 PM,49.8,49.8,100,30.26,2.5,East,4.6,-,N/A,,Overcast,80,2013-01-25 00:15:00
6:35 PM,49.5,49.5,100,30.25,1.8,East,5.8,-,N/A,,Overcast,80,2013-01-25 00:35:00
6:55 PM,49.1,49.1,100,30.24,1.2,East,3.5,-,N/A,,Overcast,100,2013-01-25 00:55:00
7:15 PM,49.3,49.3,100,30.24,0.8,East,6.9,-,N/A,,Overcast,90,2013-01-25 01:15:00
7:35 PM,49.1,49.1,100,30.24,0.8,East,3.5,-,N/A,,Overcast,80,2013-01-25 01:35:00
7:55 PM,49.1,49.1,100,30.24,1.0,East,4.6,-,N/A,,Overcast,90,2013-01-25 01:55:00
8:15 PM,48.6,48.6,100,30.23,3.0,East,4.6,-,N/A,,Overcast,100,2013-01-25 02:15:00
8:35 PM,48.2,48.2,100,30.23,4.0,ESE,3.5,-,N/A,,Overcast,110,2013-01-25 02:35:00
8:55 PM,48.2,48.2,100,30.23,1.5,East,3.5,-,N/A,,Overcast,100,2013-01-25 02:55:00
9:15 PM,48.2,48.2,100,30.23,1.0,East,4.6,-,N/A,,Overcast,100,2013-01-25 03:15:00
9:35 PM,48.2,48.2,100,30.23,0.5,East,4.6,-,N/A,Fog,Fog,100,2013-01-25 03:35:00
9:55 PM,48.4,48.4,100,30.22,0.2,ESE,3.5,-,N/A,Fog,Fog,120,2013-01-25 03:55:00
10:15 PM,48.4,48.4,100,30.21,0.2,East,4.6,-,N/A,Fog,Fog,100,2013-01-25 04:15:00
10:35 PM,48.6,48.6,100,30.22,0.2,ENE,3.5,-,N/A,Fog,Fog,70,2013-01-25 04:35:00
10:55 PM,48.4,48.4,100,30.22,0.2,Calm,Calm,-,N/A,Fog,Fog,0,2013-01-25 04:55:00
11:15 PM,48.6,48.6,100,30.21,0.2,Calm,Calm,-,N/A,Fog,Fog,0,2013-01-25 05:15:00
11:35 PM,48.6,48.6,100,30.21,0.2,Calm,Calm,-,N/A,Fog,Fog,0,2013-01-25 05:35:00
11:55 PM,48.6,48.6,100,30.21,0.2,Calm,Calm,-,N/A,Fog,Fog,0,2013-01-25 05:55:00